Home   Weather   Ratingen   Past weeks
Flag for Germany

Past Weather in Ratingen, North Rhine-Westphalia, Germany — Yesterday and Last 2 Weeks

Now
70 °F

Passing clouds.


Feels Like: 70 °F
Forecast: 76 / 62 °F
Wind: 10 mph from West

Location: Duesseldorf

Current Time: Jul 19, 2019 at 12:03:12 am

Latest Report: Jul 18, 2019 at 11:20 pm


Visibility: N/A

Pressure: 29.89 "Hg

Humidity: 64%

Dew Point: 57 °F

Location of RatingenLocation

Past Weather in Ratingen — Graph

°F

Ratingen Temperature Yesterday

Maximum temperature yesterday: 79 °F (at 12:50 pm)
Minimum temperature yesterday: 55 °F (at 1:50 am)
Average temperature yesterday: 68 °F

High & Low Weather Summary for the Past Weeks

 TemperatureHumidityPressure
High81 °F (Jul 5, 6:20 pm)100% (Jul 8, 5:20 am)30.30 "Hg (Jul 8, 5:20 am)
Low45 °F (Jul 8, 4:50 am)25% (Jul 10, 2:50 pm)29.80 "Hg (Jul 6, 3:20 pm)
Average63 °F66%30.03 "Hg
* Reported Jul 3 10:20 pm — Jul 18 10:50 pm, Ratingen. Weather by CustomWeather, © 2019

Note: Actual official high and low records may vary slightly from our data, if they occured in-between our weather recording intervals... More about our weather records

Advertising

Ratingen Weather History for the Previous 24 Hours

Scroll right to see more
 ConditionsComfort  
Time TempWeatherWind HumidityBarometerVisibility
10:50 pm
Thu, Jul 18
70 °FLight rain. Passing clouds.14 mph64%29.89 "HgN/A
10:20 pm70 °FClear.6 mph60%29.89 "Hg10 mi
9:50 pm72 °FClear.2 mph57%29.89 "Hg10 mi
9:20 pm72 °FSunny.5 mph53%29.86 "Hg10 mi
8:50 pm72 °FSunny.7 mph53%29.86 "Hg10 mi
8:20 pm73 °FSunny.7 mph47%29.86 "Hg10 mi
7:50 pm73 °FScattered showers. Passing clouds.9 mph44%29.86 "HgN/A
7:20 pm75 °FSunny.13 mph44%29.86 "Hg10 mi
6:50 pm75 °FPassing clouds.13 mph47%29.86 "HgN/A
6:20 pm75 °FPassing clouds.10 mph50%29.86 "HgN/A
5:50 pm77 °FSunny.10 mph47%29.86 "Hg10 mi
5:20 pm77 °FPassing clouds.14 mph44%29.86 "HgN/A
4:50 pm77 °FPassing clouds.13 mph44%29.86 "HgN/A
4:20 pm77 °FPassing clouds.9 mph44%29.86 "HgN/A
3:50 pm73 °FPassing clouds.10 mph53%29.86 "HgN/A
3:20 pm72 °FScattered showers. Passing clouds.9 mph61%29.86 "HgN/A
2:50 pm75 °FSprinkles. Passing clouds.20 mph44%29.86 "HgN/A
1:50 pm77 °FSunny.16 mph42%29.86 "Hg10 mi
1:20 pm79 °FPassing clouds.9 mph39%29.86 "HgN/A
12:50 pm79 °FPassing clouds.7 mph39%29.86 "HgN/A
12:20 pm75 °FPassing clouds.8 mph44%29.86 "HgN/A
11:50 am75 °FPassing clouds.10 mph47%29.86 "HgN/A
11:20 am75 °FPassing clouds.10 mph44%29.86 "HgN/A
10:50 am73 °FSunny.9 mph47%29.86 "Hg10 mi
10:20 am72 °FPassing clouds.7 mph53%29.86 "HgN/A
9:50 am68 °FPassing clouds.7 mph60%29.86 "HgN/A
9:20 am66 °FPassing clouds.7 mph64%29.89 "HgN/A
8:50 am66 °FSunny.8 mph64%29.89 "Hg10 mi
8:20 am64 °FPassing clouds.8 mph73%29.89 "HgN/A
7:50 am61 °FSunny.8 mph77%29.89 "Hg10 mi
7:20 am61 °FSunny.8 mph77%29.89 "Hg10 mi
6:50 am61 °FPassing clouds.6 mph77%29.89 "HgN/A
6:20 am59 °FSunny.3 mph82%29.89 "Hg10 mi
5:50 am59 °FSunny.7 mph82%29.89 "Hg10 mi
5:20 am59 °FClear.8 mph82%29.89 "Hg10 mi
4:50 am59 °FClear.7 mph82%29.89 "Hg10 mi
4:20 am59 °FPassing clouds.5 mph82%29.89 "HgN/A
3:50 am59 °FPassing clouds.7 mph82%29.89 "HgN/A
3:20 am55 °FClear.1 mph94%29.92 "Hg10 mi
2:50 am55 °FClear.3 mph94%29.92 "Hg10 mi
2:20 am55 °FClear.3 mph88%29.92 "Hg10 mi
1:50 am55 °FClear.3 mph94%29.92 "Hg10 mi
1:20 am57 °FClear.2 mph88%29.92 "Hg10 mi
12:50 am59 °FClear.5 mph82%29.92 "Hg10 mi
12:20 am59 °FClear.5 mph82%29.92 "Hg10 mi
Weather by CustomWeather, © 2019

See weather overview